This demonstration page uses our WeatherBlox Daily Observations layout. Learn more.

Left ArrowRight Arrow

39.92423, -83.80882

Hourly Observations for November 26, 2020

Temp ( °F °C ) Dew Point ( °F °C ) Humidity (%) Winds ( mph kmh ) Pressure ( in mb ) Visibility ( mi km ) Precip ( " mm )
12:56 am 00:56 Cloudy 52 11.1 51 10.6 97 97 WSW 17 28 29.85 1011 10 16 N/A
1:56 am 01:56 Cloudy 52 11.1 49 9.4 89 89 WSW 20 31 29.87 1012 10 16 N/A
2:34 am 02:34 Cloudy 52 11 50 10 94 94 WSW 18 30 29.89 1012 10 16 N/A
2:56 am 02:56 Cloudy 51 10.6 49 9.4 92 92 W 21 33 29.90 1012 10 16 N/A
3:17 am 03:17 Cloudy 52 11 48 9 88 88 WSW 12 19 29.91 1013 10 16 N/A
3:56 am 03:56 Cloudy 50 10 49 9.4 96 96 W 20 31 29.92 1013 10 16 N/A
4:56 am 04:56 Cloudy 50 10 48 8.9 93 93 W 13 20 29.95 1014 10 16 N/A
5:10 am 05:10 Cloudy 50 10 48 9 94 94 W 16 26 29.95 1014 10 16 N/A
5:51 am 05:51 Cloudy with Light Rain 48 9 48 9 100 100 W 8 13 29.98 1015 5 8 N/A
5:56 am 05:56 Cloudy with Light Rain 48 8.9 48 8.9 100 100 W 8 13 29.98 1015 4 6 N/A
6:56 am 06:56 Cloudy with Mist and Fog 47 8.3 47 8.3 100 100 W 12 19 30.00 1016 4 6 N/A
7:53 am 07:53 Cloudy with Light Rain 46 8 46 8 100 100 W 13 20 30.04 1017 3 4 N/A
7:56 am 07:56 Cloudy with Light Rain 47 8.3 47 8.3 100 100 W 9 15 30.03 1017 3 5 N/A
8:14 am 08:14 Cloudy with Mist and Fog 46 8 46 8 100 100 W 9 15 30.04 1017 6 10 N/A
8:22 am 08:22 Cloudy 46 8 46 8 100 100 W 8 13 30.04 1017 10 16 N/A
8:46 am 08:46 Cloudy 46 8 46 8 100 100 W 8 13 30.05 1018 7 11 N/A
8:56 am 08:56 Cloudy 47 8.3 47 8.3 100 100 W 8 13 30.04 1017 10 16 N/A
9:10 am 09:10 Cloudy 46 8 46 8 100 100 W 9 15 30.06 1018 10 16 N/A
9:56 am 09:56 Cloudy 48 8.9 48 8.9 100 100 W 9 15 30.06 1018 10 16 N/A
10:11 am 10:11 Cloudy 48 9 48 9 100 100 W 13 20 30.08 1018 10 16 N/A
10:56 am 10:56 Cloudy 49 9.4 48 8.9 97 97 W 13 20 30.08 1019 10 16 N/A
11:56 am 11:56 Cloudy 49 9.4 48 8.9 97 97 WSW 13 20 30.07 1018 10 16 N/A
12:56 pm 12:56 Cloudy 50 10 47 8.3 89 89 WSW 10 17 30.06 1018 10 16 N/A
1:05 pm 13:05 Cloudy 50 10 46 8 88 88 WSW 12 19 30.06 1018 10 16 N/A
1:56 pm 13:56 Cloudy 50 10 46 7.8 86 86 WSW 10 17 30.06 1018 10 16 N/A
2:41 pm 14:41 Cloudy 50 10 46 8 88 88 WSW 9 15 30.06 1018 10 16 N/A
2:56 pm 14:56 Cloudy 50 10 46 7.8 86 86 WSW 13 20 30.06 1018 10 16 N/A
3:05 pm 15:05 Cloudy 50 10 46 8 88 88 WSW 12 19 30.05 1018 10 16 N/A
3:15 pm 15:15 Cloudy 50 10 46 8 88 88 WSW 10 17 30.05 1018 10 16 N/A
3:33 pm 15:33 Cloudy 50 10 46 8 88 88 W 9 15 30.06 1018 10 16 N/A
3:56 pm 15:56 Cloudy 50 10 44 6.7 80 80 W 12 19 30.07 1018 10 16 N/A
4:25 pm 16:25 Cloudy 50 10 45 7 82 82 W 8 13 30.07 1018 10 16 N/A
4:56 pm 16:56 Cloudy 49 9.4 45 7.2 86 86 W 6 9 30.08 1019 10 16 N/A
5:56 pm 17:56 Cloudy 48 8.9 46 7.8 93 93 SW 5 7 30.10 1019 10 16 N/A
6:56 pm 18:56 Cloudy 48 8.9 46 7.8 93 93 WSW 5 7 30.11 1020 10 16 N/A
7:56 pm 19:56 Cloudy 47 8.3 47 8.3 100 100 WSW 3 6 30.11 1020 10 16 N/A
8:56 pm 20:56 Cloudy 47 8.3 47 8.3 100 100 W 6 9 30.11 1020 10 16 N/A
9:45 pm 21:45 Cloudy 46 8 46 8 100 100 W 6 9 30.13 1020 10 16 N/A
9:56 pm 21:56 Cloudy 47 8.3 47 8.3 100 100 W 5 7 30.13 1020 10 16 N/A
10:28 pm 22:28 Cloudy 46 8 46 8 100 100 SW 3 6 30.12 1020 10 16 N/A
10:56 pm 22:56 Cloudy 46 7.8 46 7.8 100 100 SW 3 6 30.11 1020 10 16 N/A
11:56 pm 23:56 Cloudy 47 8.3 42 5.6 83 83 WSW 6 9 30.11 1020 10 16 N/A

Powered by AerisWeather